RH
91 95 90 96 98 100 95 98 100 97 93 99 100 99 94 53 57 56 49 44 48 54 52 56 55 51 45 42 42 59 50 57 78 64 38 37 39 59 58 90 68 76 81 64
89 94 82 97 95 99 96 98 100 99 98 99 100 90 83 62 59 55 51 54 46 44 50 57 48 46 48 45 48 51 51 78 81 73 56 43 55 50 47 66 77 93 90 59
84 85 85 95 86 89 97 98 100 98 95 87 69 90 89 75 62 57 50 53 44 47 50 49 52 56 54 50 47 58 47 60 79 68 62 68 99 74 64 94 97 72 64 55
86 94 75 95 82 85 96 98 99 99 97 76 59 69 77 72 62 57 53 58 52 51 57 55 58 52 55 56 55 54 54 100 86 72 63 65 77 76 74 94 95 98 70 63
68 90 80 90 88 72 97 98 99 97 74 62 53 61 72 57 62 51 58 56 55 53 57 57 66 54 52 53 56 59 61 92 90 87 56 59 84 64 77 95 95 96 94 94
67 88 79 86 86 83 96 98 100 100 76 54 50 53 53 57 50 63 58 52 54 58 58 63 57 63 63 55 61 65 76 99 99 83 63 75 85 95 96 96 91 89 91 66
83 90 90 76 78 94 97 100 100 99 73 57 48 51 49 52 52 61 61 58 56 74 75 76 77 72 68 73 71 55 66 88 97 99 83 86 61 56 69 90 85 54 58 62
73 61 92 81 46 91 100 98 100 99 89 50 50 52 49 48 57 58 60 72 78 79 81 85 65 73 76 69 72 68 62 71 98 96 73 56 56 54 63 91 87 54 77 73
80 81 84 83 32 77 98 100 99 99 100 60 53 50 51 59 58 62 62 82 84 82 78 80 82 84 55 65 81 73 74 72 96 90 94 81 50 47 52 60 73 53 65 66
42 58 70 65 41 66 92 99 99 100 99 86 70 53 58 56 56 66 73 93 92 87 85 89 74 71 55 63 59 77 90 96 99 96 98 62 38 44 66 73 60 56 78 78
65 94 85 78 63 62 71 100 100 98 99 90 82 68 65 70 65 64 88 88 93 97 95 77 71 81 61 62 48 58 68 82 87 94 96 81 44 44 58 53 54 54 55 77
82 89 91 91 94 91 69 99 80 92 99 96 90 81 72 70 70 78 82 88 81 71 78 74 80 88 62 57 60 52 63 47 60 55 50 38 43 48 51 59 60 56 62 70
92 91 90 97 91 97 96 96 64 87 100 95 94 86 79 77 74 73 82 90 84 78 76 82 85 92 77 70 58 55 50 46 57 58 43 41 44 49 58 66 67 72 70 73
99 90 98 87 99 95 95 100 78 77 100 96 82 75 80 76 80 78 78 83 81 87 82 92 90 87 70 67 66 64 50 58 56 55 45 42 53 60 63 70 71 73 75 71
98 98 98 92 97 88 89 76 61 66 99 97 86 93 84 83 81 83 83 86 90 95 97 97 94 79 74 66 69 67 48 52 55 47 47 49 50 63 65 69 70 69 72 72
85 93 89 92 94 95 98 100 100 100 100 100 95 92 97 90 91 91 90 92 97 95 98 94 84 73 77 95 92 48 46 47 45 43 57 58 61 64 65 70 69 70 72 72
79 98 97 97 98 97 100 99 100 100 100 99 94 87 96 94 98 96 98 99 99 98 96 93 82 77 89 82 74 43 43 49 50 54 59 58 65 60 67 71 70 71 71 72
92 78 84 90 96 99 88 89 99 100 99 100 99 87 85 99 90 94 99 98 99 99 95 89 94 86 85 88 61 58 56 54 56 59 62 61 61 64 71 72 70 70 70 71
63 80 80 91 98 99 96 87 100 99 100 98 98 94 96 97 92 98 99 100 100 94 98 94 96 90 96 73 68 63 65 69 64 65 70 67 65 69 71 72 72 69 69 69
76 81 98 99 95 94 99 99 100 99 100 100 99 84 78 93 85 89 90 100 98 100 96 97 100 89 68 65 66 72 75 74 68 71 76 71 69 69 71 74 70 68 66 65
72 96 98 98 99 100 100 99 100 98 100 94 89 85 73 89 84 81 93 95 97 100 91 93 92 80 64 70 64 68 71 76 72 67 68 64 63 65 66 72 75 67 63 60
89 98 94 100 100 99 100 100 99 99 94 95 92 90 87 89 93 88 91 100 96 99 78 88 94 66 67 63 63 72 80 82 84 74 67 63 62 60 70 80 66 64 56 49
99 99 98 100 98 99 100 100 100 100 99 99 99 99 96 93 94 91 92 100 96 78 94 86 74 69 58 63 76 87 83 84 83 76 70 64 65 72 75 69 69 55 47 44
100 99 96 96 94 87 87 89 100 99 100 99 99 99 95 89 95 87 97 81 82 88 96 90 61 71 70 76 83 89 80 77 73 68 64 69 72 79 73 68 60 56 42 43
99 97 94 89 94 99 99 96 98 100 100 99 100 98 91 99 99 86 96 94 94 82 81 83 83 76 77 83 85 87 84 76 72 71 71 73 75 75 71 68 60 44 42 44
99 97 96 91 98 95 99 98 99 99 99 100 100 100 100 100 95 97 97 95 92 91 93 88 89 81 80 85 86 87 85 80 74 74 73 73 76 76 71 65 52 48 46 44
93 88 91 99 91 95 97 88 80 91 98 100 100 100 95 96 98 97 87 93 93 93 96 94 84 79 78 78 84 87 87 83 79 77 79 80 78 73 66 58 57 52 49 44
Wind_Speed
29 29 33 29 33 36 19 7 2 9 14 3 2 2 2 13 7 4 4 8 6 16 17 11 12 9 2 10 10 11 10 3 6 11 8 7 12 13 17 7 9 7 12 20
29 29 33 30 34 28 11 4 4 7 5 2 1 3 3 6 3 3 3 5 3 6 13 6 6 8 4 11 12 10 11 5 3 2 0 11 10 15 18 18 16 20 15 18
28 28 31 30 34 23 10 3 2 5 5 1 11 6 4 5 6 9 10 9 10 9 13 3 8 6 4 10 12 6 11 5 7 6 8 5 6 14 16 14 9 18 24 33
25 25 30 28 30 24 7 9 4 3 2 2 7 6 4 2 3 4 4 4 3 3 4 4 4 5 7 6 8 6 5 3 7 16 22 20 19 22 23 20 21 16 31 28
25 24 27 26 27 20 22 5 4 8 2 8 8 5 7 7 4 1 3 5 5 3 4 2 5 6 6 5 9 10 4 3 4 15 20 17 15 21 19 18 20 18 22 28
23 23 25 24 23 24 12 13 8 2 0 7 5 4 6 5 5 4 7 5 4 3 4 3 1 3 6 5 7 11 4 2 2 6 10 19 9 3 8 11 14 9 12 16
21 22 21 23 17 19 13 9 4 4 3 5 5 4 3 8 2 5 5 3 1 6 4 3 3 8 10 11 11 10 5 6 3 6 11 3 3 6 8 10 15 15 14 14
22 20 20 21 17 17 13 12 5 3 3 6 6 4 4 6 4 2 2 4 4 3 3 2 3 3 3 9 16 14 11 7 3 3 7 16 7 7 3 2 6 15 11 11
18 18 18 20 17 14 10 9 6 2 3 3 3 8 6 4 4 4 3 3 2 1 2 2 2 2 2 4 6 1 6 9 4 3 4 4 5 5 2 3 3 12 12 11
19 17 18 19 17 14 10 5 7 1 3 4 4 7 5 5 5 1 2 1 1 3 3 3 3 3 2 3 3 5 4 2 6 7 4 9 7 7 1 3 6 11 12 11
20 20 19 18 16 16 13 6 6 9 3 8 2 5 4 6 7 3 4 2 1 2 3 3 2 2 2 3 3 3 7 6 4 4 5 5 5 7 5 5 11 7 10 5
18 19 19 19 16 16 14 7 7 9 5 5 4 7 9 9 5 4 6 1 1 3 0 2 2 2 3 4 2 2 4 6 2 5 3 10 11 10 10 6 10 10 7 3
17 18 20 18 16 14 12 11 7 6 4 8 4 5 8 7 8 8 5 5 5 3 3 1 1 4 2 3 5 6 6 6 4 5 3 7 14 8 2 5 6 5 3 2
18 18 19 19 16 14 13 12 8 6 4 2 3 5 7 10 10 9 15 7 6 7 5 3 2 3 2 3 4 5 5 3 4 9 14 9 3 6 4 3 4 4 5 6
19 20 21 22 15 16 14 11 10 10 5 2 3 4 7 8 11 13 14 13 9 6 3 3 3 3 4 6 3 10 11 9 6 5 6 4 5 4 4 3 5 6 7 12
21 22 24 20 16 13 7 3 4 9 11 2 2 2 2 3 6 7 9 11 11 8 4 2 4 9 4 3 4 8 18 20 17 13 4 3 3 2 1 2 6 8 10 11
25 26 25 23 16 12 10 4 9 5 9 2 3 1 1 2 3 3 4 6 5 6 3 4 4 4 8 3 9 8 8 8 12 10 5 5 4 1 3 5 9 12 13 15
27 21 7 3 4 7 11 9 4 7 4 3 1 1 2 4 3 3 6 4 7 6 4 3 3 3 5 5 11 14 16 15 11 9 8 7 4 6 9 10 13 16 17 18
16 2 4 6 3 3 4 7 6 4 4 3 2 1 0 3 2 2 3 4 3 4 3 2 3 3 5 10 11 8 6 5 4 8 9 8 8 11 13 15 15 17 18 19
4 1 3 2 1 1 10 3 4 3 4 4 2 2 0 3 1 2 1 2 1 2 0 5 3 5 20 22 18 10 7 5 7 7 8 13 14 17 18 18 16 18 21 24
4 4 2 1 4 4 2 3 5 5 2 5 3 2 2 1 2 1 1 0 0 2 1 2 2 3 1 5 10 10 11 13 18 11 10 12 11 20 23 23 19 21 24 24
6 2 0 1 1 1 1 1 1 3 1 1 1 1 3 1 2 2 0 0 0 2 2 1 3 2 9 14 14 13 11 8 12 13 10 10 12 20 23 23 24 25 26 26
1 1 2 2 1 2 3 6 2 2 2 5 4 0 1 2 1 0 1 2 2 1 2 3 3 7 11 15 13 10 6 3 8 10 12 10 17 19 22 26 27 27 26 27
2 0 1 2 2 1 1 0 1 1 0 5 3 3 1 0 0 1 1 0 1 2 3 4 3 15 20 16 14 9 4 1 4 7 8 12 16 18 21 26 29 28 30 29
3 2 2 2 1 2 1 1 1 1 2 4 2 2 1 0 0 1 1 2 4 4 2 3 14 23 20 17 15 10 5 3 3 5 8 13 17 20 24 26 28 30 29 29
3 3 2 1 3 1 2 1 2 2 4 2 2 1 1 3 1 2 5 2 4 2 3 13 17 20 18 17 15 11 7 5 5 6 8 12 17 22 26 29 30 29 29 30
3 3 4 0 1 0 0 1 1 3 1 0 0 3 2 1 3 3 3 3 0 7 11 13 16 20 20 18 15 11 7 6 6 7 9 14 20 24 28 30 30 29 28 26
Wind_Direction
353 352 349 352 348 355 7 13 94 151 129 99 234 102 296 124 120 97 96 123 144 159 165 169 182 175 82 190 182 183 194 208 250 242 241 225 238 216 225 231 230 234 261 266
356 354 352 353 358 5 14 36 51 59 70 135 94 85 78 99 150 52 109 114 108 146 161 164 184 192 119 175 180 174 165 207 274 230 167 233 233 248 245 244 265 253 263 264
357 357 357 359 8 7 40 55 45 18 18 113 136 111 85 114 57 68 81 96 123 133 163 23 169 147 156 183 200 68 178 220 238 270 321 357 232 250 252 244 253 265 247 269
0 0 360 5 12 25 65 25 36 358 75 95 109 103 87 101 108 69 70 95 120 132 145 171 161 163 147 163 186 185 229 242 261 265 274 280 272 269 270 261 256 253 276 277
1 4 1 8 17 29 47 52 3 349 245 154 142 138 162 176 106 99 81 108 121 149 122 74 177 187 205 197 171 202 219 260 287 281 274 265 273 278 277 265 267 259 262 270
358 2 3 7 24 24 26 13 2 340 360 196 168 139 159 150 144 67 62 108 118 118 57 5 284 226 288 294 182 196 206 197 281 268 321 305 272 257 282 282 289 254 281 286
354 357 2 3 23 30 11 6 350 336 164 191 192 154 139 157 128 103 97 83 42 66 49 326 246 240 243 243 245 231 213 189 212 291 304 265 15 316 254 268 288 330 317 293
355 356 360 357 10 20 42 32 15 338 309 203 188 181 174 155 149 120 107 93 123 59 25 309 259 192 221 232 224 230 213 225 275 276 309 276 298 336 315 335 303 354 341 330
347 352 348 350 0 7 23 27 29 301 297 235 247 216 206 182 195 173 182 131 190 161 257 217 272 272 325 156 148 158 240 224 217 323 299 295 35 24 8 140 30 11 343 341
344 335 333 341 349 353 7 10 4 280 269 321 266 214 213 202 210 101 102 107 141 181 196 225 237 253 347 268 210 170 151 168 223 242 261 278 304 354 109 321 345 350 331 338
346 343 340 337 340 340 347 327 343 16 296 285 266 231 207 197 221 222 134 143 154 142 218 224 241 234 285 284 269 190 189 181 199 196 228 274 20 315 334 345 312 308 292 297
341 343 340 334 331 333 340 316 332 334 266 272 248 229 234 237 253 153 158 338 160 225 332 258 349 283 253 303 290 213 249 234 324 222 255 321 308 284 302 297 289 295 286 327
332 335 331 326 318 321 327 313 330 333 280 299 270 226 232 244 239 229 171 210 214 226 260 170 172 252 266 255 252 274 233 244 250 318 165 322 320 312 341 325 308 291 259 157
324 322 319 318 313 315 316 301 286 291 277 286 286 261 243 240 236 224 217 228 215 214 209 199 231 255 307 277 312 273 315 175 264 266 281 293 41 21 2 13 48 71 109 124
319 316 312 313 303 305 298 291 267 225 213 323 290 282 252 240 235 230 231 246 236 199 190 214 210 234 250 231 265 261 233 243 224 269 9 314 2 4 352 28 88 114 129 118
319 310 307 304 296 290 298 221 177 183 195 263 277 263 244 234 231 231 231 233 235 221 212 206 238 236 243 247 244 246 247 235 252 268 313 325 301 296 24 101 109 119 129 128
320 317 304 290 273 238 213 224 171 143 176 231 269 267 258 225 225 231 234 228 224 219 217 225 243 248 208 258 246 256 271 286 256 244 247 268 232 285 173 154 133 130 125 124
326 321 334 315 178 189 233 223 180 163 196 236 264 269 223 188 196 215 194 208 211 223 233 240 226 228 219 260 252 267 265 264 250 248 237 258 213 174 158 158 145 135 127 128
342 48 83 78 108 162 208 170 151 194 228 304 203 254 223 181 241 224 207 226 213 205 220 230 229 186 223 241 260 285 285 240 249 210 217 206 194 179 167 159 151 143 137 140
358 179 338 142 290 323 144 128 143 162 217 230 250 249 226 181 181 210 225 219 289 253 212 309 241 258 254 266 272 270 263 254 249 199 207 201 200 184 169 165 166 161 154 150
347 24 349 66 138 149 158 186 195 173 230 202 221 259 267 236 254 273 302 211 256 272 23 302 279 266 311 335 326 304 281 252 244 246 252 237 221 187 174 173 173 169 162 160
324 1 218 187 200 114 165 194 149 205 211 75 273 138 233 271 232 270 66 271 347 268 346 293 262 279 350 328 322 319 301 255 225 223 226 213 211 191 184 182 176 171 170 165
289 340 312 288 172 204 217 176 180 164 23 8 11 349 251 240 246 132 203 224 227 51 241 246 253 338 351 339 336 337 339 212 201 214 209 212 198 198 199 184 179 175 170 168
245 146 261 266 185 213 202 115 68 54 41 354 332 278 246 196 107 332 243 181 287 250 240 241 11 355 340 344 344 348 341 234 202 196 199 197 194 189 188 188 180 177 173 173
240 184 217 242 343 154 192 91 120 77 352 340 302 265 233 124 192 202 334 242 242 228 259 20 344 340 343 344 347 346 325 271 231 213 189 186 190 190 184 183 180 179 176 172
225 212 200 196 275 169 170 72 345 343 317 285 218 200 191 242 180 180 221 240 238 70 347 323 327 335 339 338 340 336 314 281 257 228 207 192 185 182 179 178 178 177 178 178
219 209 206 212 38 236 297 331 33 327 318 352 339 210 200 21 215 232 203 228 59 317 317 328 333 332 332 334 331 326 311 284 257 233 203 190 185 183 180 176 175 178 178 177